Theta_e
300 300 301 302 303 304 306 309 311 313 314 315 316 318 315 316 318 318 319 320 320 320 319 319 319 320 320 320 320 319 320 319 319 316 315 313 311 310 310 309 308 306 305
300 300 301 302 303 304 307 311 313 314 315 317 319 317 318 318 319 319 319 320 319 319 320 320 319 319 320 320 319 320 319 319 317 315 316 314 312 310 310 309 307 306 305
300 300 301 303 304 305 309 312 314 315 317 318 318 319 318 319 319 319 320 319 320 319 319 320 319 319 319 320 319 319 319 317 316 316 315 314 313 309 308 308 306 305 304
300 300 301 303 305 307 312 314 314 315 318 319 319 319 319 319 319 320 319 320 320 320 320 319 321 321 320 319 319 319 318 316 315 314 314 313 312 310 309 308 308 306 306
301 302 302 303 305 309 312 314 315 316 318 319 320 320 320 320 320 320 320 319 320 320 320 320 320 319 319 319 319 318 317 315 313 313 313 312 310 310 308 309 309 307 305
302 302 303 303 306 310 312 314 316 316 317 320 320 319 320 320 320 320 319 319 320 320 319 319 319 318 318 317 316 316 315 314 313 312 311 311 309 309 309 309 308 307 305
303 303 303 306 309 311 312 313 315 317 316 317 319 319 319 318 318 318 319 318 318 317 317 317 317 316 316 316 315 314 313 312 311 310 310 310 310 309 308 308 307 305 304
303 303 305 309 310 311 312 312 314 315 316 316 316 316 316 316 316 317 316 317 317 317 316 316 316 316 315 315 314 313 312 311 310 309 309 309 308 308 307 306 305 304 303
303 303 304 309 310 311 312 312 314 314 314 313 313 313 313 313 313 314 314 315 316 315 314 314 313 313 312 311 310 309 308 306 305 304 304 304 304 304 304 304 303 303 301
303 304 303 306 309 310 311 312 312 311 311 310 310 310 310 310 310 311 312 312 312 312 311 310 309 308 306 305 305 304 304 302 301 301 301 300 298 296 296 297 298 299 299
304 304 304 304 307 310 311 310 311 311 311 311 311 310 309 308 310 310 310 310 309 308 307 307 306 306 305 305 305 304 302 301 300 299 296 296 296 295 294 294 294 295 295
304 304 304 305 305 305 307 308 309 309 308 308 308 308 308 308 308 308 308 308 308 307 307 307 306 305 304 304 303 302 301 301 301 300 298 297 295 294 293 293 293 293 293
303 304 304 304 304 305 305 306 306 307 306 306 306 306 307 307 307 306 305 304 304 304 303 303 303 303 303 304 303 303 303 303 302 300 299 298 295 293 293 292 292 292 292
301 303 303 303 304 304 304 304 305 305 305 305 305 305 305 305 305 305 304 304 303 303 303 303 303 302 302 301 299 298 298 298 299 299 298 296 296 295 294 293 291 291 291
296 298 301 301 302 302 303 303 303 303 303 303 303 303 303 304 303 303 303 302 300 297 294 293 293 292 292 292 292 292 292 292 292 292 292 292 292 292 292 292 291 291 290
297 296 295 295 296 296 297 298 297 296 296 295 295 294 294 294 293 293 293 293 294 296 297 298 298 298 297 297 296 295 293 292 292 291 291 290 290 290 289 289 290 289 289
298 298 297 296 295 295 294 294 294 293 293 293 293 293 294 294 295 296 297 299 300 303 304 304 303 302 300 298 297 296 296 295 294 294 293 293 292 291 291 290 289 288 288
298 298 298 297 296 296 295 295 294 294 294 295 294 294 294 294 296 297 299 301 304 304 304 302 300 298 297 296 295 295 294 294 293 293 292 291 291 290 290 290 289 289 289
297 297 297 296 296 295 295 294 294 294 294 294 294 295 295 296 297 298 300 304 303 302 299 297 296 294 293 293 292 291 291 291 290 290 289 289 288 288 288 288 287 287 286
295 295 295 294 294 294 294 294 294 294 295 296 295 295 296 296 298 301 302 301 300 298 295 293 292 291 290 290 290 289 289 288 288 288 287 287 286 286 286 285 285 285 285
298 296 295 294 294 295 295 295 295 296 297 296 295 296 297 298 300 299 299 297 295 294 293 291 290 289 289 289 288 288 287 287 286 286 285 285 285 284 284 284 283 283 283
298 297 297 296 296 296 296 297 297 296 296 296 297 297 297 298 298 296 295 293 292 291 290 289 289 288 287 286 286 285 285 285 284 283 283 283 282 282 282 282 281 281 281
299 299 298 297 297 296 296 296 297 297 298 298 297 296 295 294 293 292 291 290 289 288 287 286 285 285 284 283 283 283 282 281 280 280 280 280 279 279 279 279 279 279 279
300 299 298 297 297 297 296 296 297 298 297 296 295 293 292 291 290 289 288 287 287 286 285 284 283 282 282 281 280 279 278 277 277 277 277 277 277 277 277 277 277 277 277
298 297 297 296 296 296 296 297 297 295 294 294 293 291 290 289 288 287 286 285 284 283 282 281 280 279 278 277 277 276 276 276 276 276 276 276 275 275 275 275 275 275 275
297 296 296 295 295 296 297 296 294 293 292 291 290 289 288 288 286 285 283 282 281 281 280 279 277 276 276 276 275 275 275 275 275 274 274 274 274 274 274 273 273 273 274
Wind_Speed
4 2 1 1 2 2 3 1 2 1 4 3 6 13 22 20 21 21 19 20 21 19 17 18 20 25 23 15 11 9 8 9 7 8 11 11 9 8 8 7 8 6 7
2 2 2 3 5 5 5 3 3 5 3 7 12 19 23 21 20 19 15 16 16 18 16 22 19 21 17 19 13 10 10 7 8 7 7 10 11 11 11 11 10 9 7
3 2 3 7 7 8 8 5 6 7 7 11 17 18 20 18 17 16 12 11 14 15 19 16 16 15 15 15 17 13 9 8 6 6 7 9 12 11 13 13 12 10 8
5 4 7 11 11 11 11 8 10 11 12 16 17 20 18 15 16 14 13 12 14 12 16 16 15 15 13 13 15 11 9 7 6 5 7 6 8 11 13 13 14 12 9
6 7 11 14 13 11 14 13 14 14 16 22 17 18 15 13 15 14 11 8 10 13 14 16 12 10 10 11 12 11 8 7 6 7 7 8 10 12 13 12 12 13 12
7 10 13 14 14 13 14 16 16 15 17 24 19 18 19 18 15 12 8 9 12 8 9 8 11 11 10 9 8 7 6 6 6 8 9 10 7 7 10 11 13 15 16
9 12 15 16 14 16 17 15 18 18 16 17 19 19 17 16 13 12 15 13 10 8 9 10 11 10 8 7 6 8 9 9 9 9 9 11 10 9 11 13 15 16 18
12 14 17 17 15 15 17 16 16 17 19 20 19 18 16 17 13 11 10 10 11 12 11 12 10 9 9 7 7 6 6 6 6 8 10 11 12 11 11 13 15 17 19
14 14 18 19 17 16 16 15 16 16 16 17 17 15 14 14 13 12 10 12 13 12 10 8 6 5 4 2 3 3 5 6 8 9 10 11 13 13 14 15 17 17 19
15 15 16 18 17 16 15 15 15 14 14 14 13 12 12 11 13 10 10 8 7 7 6 5 4 3 0 2 4 6 8 9 10 12 12 13 14 15 16 16 17 18 19
17 16 16 16 17 17 13 11 10 8 5 3 2 1 4 8 8 8 7 5 4 4 3 2 1 1 3 5 7 8 9 9 10 11 12 13 13 14 14 16 18 20 22
18 17 17 16 15 14 14 12 11 9 7 6 6 8 10 8 6 5 4 2 2 1 0 1 2 3 5 7 8 9 11 12 13 13 13 13 14 14 14 15 17 19 21
20 18 17 17 16 15 14 14 13 12 10 9 7 7 8 7 6 5 4 2 0 2 3 4 5 7 8 9 10 11 13 14 15 15 15 15 15 15 16 16 17 18 20
20 19 18 16 16 15 14 13 12 10 9 7 6 6 7 7 6 4 4 3 3 3 4 5 6 8 10 11 11 12 13 14 15 16 16 16 17 17 17 18 19 20 21
22 20 19 17 16 14 13 12 11 10 9 8 7 7 7 6 6 5 5 4 3 3 4 5 6 7 8 9 10 11 12 13 14 16 17 18 18 18 19 19 20 21 22
23 23 21 19 17 15 14 13 12 12 11 9 8 7 5 4 4 4 3 2 2 2 3 4 6 8 10 11 12 12 13 15 16 17 17 18 19 19 19 20 20 21 22
22 21 20 21 19 17 16 14 13 11 11 10 9 8 8 6 5 4 3 2 2 3 5 8 11 12 13 14 15 16 16 17 17 18 19 20 20 20 21 21 21 22 23
20 18 18 18 17 17 16 14 13 12 11 10 9 8 8 6 5 5 5 4 4 5 9 10 10 10 11 12 13 13 13 15 15 16 16 17 17 18 19 19 20 21 23
23 21 20 18 16 15 15 15 14 12 10 9 9 9 10 9 8 7 5 5 6 8 8 7 6 6 7 8 9 12 13 13 14 15 16 17 18 19 19 19 20 20 21
24 22 21 20 19 19 17 15 14 13 13 11 11 9 8 6 6 5 3 3 4 3 3 4 5 5 6 7 8 10 11 12 13 14 15 16 16 17 19 20 20 21 22
24 25 25 23 20 19 17 17 16 15 13 11 10 10 9 7 7 4 2 2 0 1 2 2 4 5 6 8 9 10 11 13 14 15 16 18 19 19 19 19 20 20 21
22 21 21 21 20 19 18 17 17 16 14 12 10 10 10 10 8 6 4 4 4 4 5 5 5 6 7 9 10 12 13 15 15 17 18 19 19 19 19 19 20 21 21
20 20 20 20 20 19 20 20 18 15 14 13 13 13 12 10 9 9 9 9 9 7 7 6 7 8 10 11 13 14 15 17 18 19 19 20 21 21 22 22 22 23 24
18 20 21 23 24 23 21 21 20 16 16 16 16 14 14 13 12 12 11 11 9 9 8 8 10 10 11 12 14 16 17 18 18 19 20 21 22 22 22 23 24 24 25
20 21 21 21 21 22 22 20 19 19 19 17 16 15 14 13 13 12 12 12 12 11 11 10 10 11 12 14 15 16 16 16 18 19 20 21 21 22 23 23 23 23 24
17 18 20 21 22 21 21 20 20 19 18 18 17 17 17 16 15 15 14 14 12 11 10 10 12 12 12 14 15 14 15 16 17 18 19 20 20 21 22 23 24 24 25
Wind_Direction
1 14 18 215 165 109 50 44 63 337 300 256 172 167 162 172 176 184 192 192 196 201 204 194 209 216 226 214 208 216 244 234 248 241 231 229 223 219 220 217 227 253 268
57 41 71 142 145 116 78 71 42 31 54 141 147 156 159 168 176 176 181 185 194 206 206 200 200 210 213 226 216 221 221 239 250 248 254 236 223 218 220 225 226 236 250
86 110 118 130 131 105 89 91 48 52 98 130 150 153 160 168 170 172 172 180 178 178 189 191 191 201 216 219 225 221 229 249 231 236 251 238 228 228 233 237 234 242 252
94 100 129 129 126 112 101 89 63 67 111 125 147 143 154 163 166 172 162 171 190 191 200 201 193 201 207 221 204 215 238 226 248 232 236 240 239 242 240 242 243 251 257
99 103 128 132 129 119 111 97 85 84 111 128 121 119 140 138 144 147 150 152 156 158 163 175 179 185 184 202 225 233 239 254 218 224 240 246 256 244 246 248 249 257 258
114 117 129 130 124 123 123 113 98 103 103 120 121 135 130 131 128 133 137 150 150 165 165 165 193 176 186 189 196 217 220 233 225 235 242 255 263 264 252 248 247 253 258
128 129 131 127 123 125 126 118 115 111 126 123 120 122 126 122 129 140 141 133 133 130 143 159 168 172 193 190 191 200 203 216 227 232 249 264 270 265 258 258 256 258 264
139 140 140 134 130 123 122 127 120 120 117 118 116 116 121 121 137 148 151 156 148 147 150 157 163 169 170 180 196 208 233 248 265 270 269 268 260 256 257 258 258 261 266
146 143 149 145 134 125 130 130 127 122 117 113 107 105 101 108 105 108 131 144 148 150 150 143 152 160 168 192 243 261 269 277 279 279 279 279 277 275 271 267 261 265 267
150 145 148 155 146 137 131 126 122 116 116 109 102 90 85 102 107 115 103 96 109 117 117 122 117 117 91 316 310 307 307 304 301 295 292 288 288 286 280 275 269 264 264
155 150 147 149 159 163 159 152 149 149 140 110 44 324 127 108 109 108 111 112 102 96 102 98 105 328 305 307 307 306 305 304 303 304 300 296 293 291 287 284 280 273 271
159 157 154 151 152 155 163 172 177 176 171 156 138 130 127 139 146 143 164 162 160 180 272 310 317 313 307 310 312 312 310 308 307 305 303 301 298 296 294 290 284 280 279
166 165 164 161 161 160 159 160 161 161 159 152 146 138 149 148 150 152 153 148 100 337 334 326 320 313 309 307 306 305 302 301 301 300 301 302 302 301 297 293 287 281 277
174 172 171 171 170 170 169 168 169 170 168 166 162 161 168 173 178 188 203 226 254 281 291 291 289 289 290 293 295 296 296 294 294 296 298 299 299 299 298 295 293 289 284
181 180 179 180 180 179 177 177 176 178 182 187 190 195 200 203 208 216 228 240 256 276 295 299 299 298 298 299 300 301 302 301 302 304 305 307 307 304 303 302 301 299 297
190 183 182 183 186 187 187 189 189 189 189 191 190 189 197 205 204 207 208 204 228 275 306 313 319 319 317 315 313 313 312 311 311 312 313 314 313 312 309 307 305 305 304
201 196 189 182 182 187 186 188 190 190 192 196 197 197 191 191 209 229 230 201 220 311 324 321 314 311 313 319 322 323 324 325 324 323 322 321 318 316 315 314 314 313 311
204 208 207 201 193 191 194 198 204 205 203 206 215 219 221 210 218 231 228 256 282 309 319 319 318 325 331 334 334 334 336 336 335 335 333 332 329 326 325 323 319 315 312
201 204 207 206 207 206 205 205 205 210 210 213 221 228 230 225 218 216 236 270 298 323 333 329 341 346 352 355 355 351 349 350 348 347 346 345 342 339 336 333 330 329 327
205 204 209 207 205 207 208 210 212 210 212 220 225 221 216 209 194 194 215 262 297 321 341 358 9 8 12 13 11 6 359 357 355 354 351 349 348 346 343 340 338 335 333
204 207 210 209 207 208 208 208 209 209 210 207 205 205 200 194 195 194 227 270 322 91 99 56 41 26 27 26 20 11 3 359 356 353 350 348 344 342 339 337 335 335 334
204 209 214 212 210 207 206 205 205 201 193 190 188 181 189 196 190 180 163 133 117 107 93 83 71 58 44 29 26 18 14 10 7 5 2 357 353 349 344 341 334 329 327
196 199 202 203 204 201 196 193 190 183 182 189 183 179 177 172 163 152 143 134 126 115 100 83 67 61 54 45 35 28 19 16 14 11 7 4 1 359 356 354 350 345 343
193 198 199 198 197 195 192 186 180 183 181 176 172 169 165 159 152 145 138 128 122 114 103 93 80 64 51 45 39 37 36 31 25 24 23 20 18 15 12 10 7 3 357
188 191 192 193 189 185 181 178 178 177 174 171 167 162 158 151 146 143 138 132 127 118 106 90 75 67 59 56 54 49 46 42 38 35 33 31 28 26 23 20 17 14 10
184 182 183 181 178 176 176 175 173 172 170 164 161 158 157 155 151 146 139 131 124 116 107 97 86 76 69 63 57 52 49 47 43 40 37 35 33 31 27 25 22 20 18